Location: Bremen
(53.0833°N, 8.8000°E)
Time: 21:43:47
(UTC+02:00)

ISS - Visible Passes

Search period start: 26 June 2022 00:00
Search period end: 06 July 2022 00:00
Orbit: 414 x 420 km, 51.6° (Epoch: 26 June)

Date Brightness Start Highest point End Pass type
(mag) Time Alt. Az. Time Alt. Az. Time Alt. Az.
30 Jun -1.9 04:08:29 10° SSW 04:10:55 19° SE 04:13:22 10° E visible
01 Jul -1.5 03:20:52 10° S 03:22:27 13° SE 03:24:09 10° ESE visible
02 Jul -2.8 04:06:48 10° SW 04:09:50 32° SSE 04:12:53 10° E visible
03 Jul -2.4 03:19:11 16° SSW 03:21:01 24° SSE 03:23:48 10° E visible
04 Jul -2.0 02:31:40 17° SSE 02:32:06 17° SE 02:34:25 10° E visible
04 Jul -3.5 04:05:03 10° WSW 04:08:18 50° SSE 04:11:34 10° E visible
05 Jul -1.4 01:43:58 11° SE 01:43:58 11° SE 01:44:29 10° ESE visible
05 Jul -3.2 03:16:47 16° SW 03:19:08 39° SSE 03:22:17 10° E visible
